Weather History for CYCY - October, 2011

Change the Weather History Date:

Tuesday, October 18, 2011

  Actual Average Record
Temperature  
Mean Temperature 26 °F -  
Max Temperature 28 °F 14 °F 33 °F (2004)
Min Temperature 23 °F 2 °F 8 °F (1998)
Degree Days  
Heating Degree Days 40    
Moisture  
Dew Point 25 °F    
Average Humidity 95    
Maximum Humidity 100    
Minimum Humidity 83    
Precipitation  
Precipitation 0.00 in 0.04 in - ()
Sea Level Pressure  
Sea Level Pressure 29.85 in    
Wind  
Wind Speed 8 mph ()    
Max Wind Speed 16 mph    
Max Gust Speed -    
Visibility 5.4 miles    
Events Snow    
Averages and records for this station are not official NWS values.
T = Trace of Precipitation, MM = Missing Value Source: Averaged Metar Reports

Daily Weather History Graph

Daily Weather History Graph

Search for Another Location

Airport or City:

Trip Planner

Search our weather history database for the weather conditions in past years. The results will help you decide how hot, cold, wet, or windy it might be!

Date:

Astronomy

Oct. 18, 2011 Rise Set
Actual Time 9:01 AM ADT 5:34 PM ADT
Civil Twilight 7:55 AM ADT 6:40 PM ADT
Nautical Twilight 6:43 AM ADT 7:52 PM ADT
Astronomical Twilight 5:28 AM ADT 9:06 PM ADT
Moon No Moon Rise No Moon Set
Length of Visible Light 10h 45m
Length of Day
8h 33m
Waning Gibbous, 65% of the Moon is Illuminated
Oct 18
Waning Gibbous
Oct 20
Last Quarter
Oct 26
New
Nov 2
First Quarter
Nov 10
Full

Hourly Weather History & Observations

Time (ADT) Temp. Windchill Dew Point Humidity Pressure Visibility Wind Dir Wind Speed Gust Speed Precip Events Conditions
12:00 AM 28 °F - 27 °F 93% 29.79 in 9 mi ENE 5.8 mph - -   Overcast
12:48 AM 28.4 °F 21.2 °F 26.6 °F 93% 29.79 in 9.0 mi ENE 6.9 mph - N/A Snow Light Snow
1:03 AM 28.4 °F 21.2 °F 26.6 °F 93% 29.79 in 9.0 mi NE 6.9 mph - N/A Snow Light Snow
1:22 AM 28.4 °F 21.2 °F 26.6 °F 93% 29.79 in 2.2 mi NE 6.9 mph - N/A Snow Light Snow
1:28 AM 28.4 °F 21.2 °F 28.4 °F 100% 29.79 in 1.4 mi NE 6.9 mph - N/A Snow Light Snow
1:31 AM 28.4 °F 20.4 °F 28.4 °F 100% 29.79 in 1.1 mi NE 8.1 mph - N/A Snow Light Snow
1:35 AM 28.4 °F 20.4 °F 28.4 °F 100% 29.79 in 1.0 mi NE 8.1 mph - N/A Snow Light Snow
1:38 AM 28.4 °F 20.4 °F 28.4 °F 100% 29.79 in 1.0 mi NE 8.1 mph - N/A Snow Light Snow
1:55 AM 28.4 °F 20.4 °F 28.4 °F 100% 29.80 in 1.0 mi NE 8.1 mph - N/A Snow Light Snow
2:00 AM 28.4 °F 21.2 °F 28.4 °F 100% 29.81 in 1.0 mi NE 6.9 mph - N/A Snow Light Snow
2:09 AM 28.4 °F 20.4 °F 28.4 °F 100% 29.80 in 1.1 mi NE 8.1 mph - N/A Snow Light Snow
2:12 AM 28.4 °F 20.4 °F 28.4 °F 100% 29.80 in 1.1 mi NE 8.1 mph - N/A Snow Light Snow
2:35 AM 28.4 °F 18.5 °F 26.6 °F 93% 29.80 in 2.5 mi NE 11.5 mph - N/A Snow Light Snow
2:46 AM 28.4 °F 19.1 °F 26.6 °F 93% 29.81 in 5.0 mi NE 10.4 mph - N/A Snow Light Snow
2:57 AM 28.4 °F 18.5 °F 28.4 °F 100% 29.81 in 5.0 mi NE 11.5 mph - N/A Snow Light Snow
2:58 AM 28.4 °F 18.0 °F 28.4 °F 100% 29.81 in 5.0 mi NE 12.7 mph - N/A Snow Light Snow
3:00 AM 28 °F - 28 °F 97% 29.82 in 4 mi NE 11.5 mph - -  
3:20 AM 28.4 °F 18.0 °F 26.6 °F 93% 29.81 in 4.0 mi NE 12.7 mph - N/A   Overcast
3:31 AM 28.4 °F 18.0 °F 26.6 °F 93% 29.82 in 2.5 mi NE 12.7 mph - N/A   Unknown
3:37 AM 28.4 °F 17.5 °F 26.6 °F 93% 29.82 in 2.5 mi NE 13.8 mph - N/A Snow Light Snow
3:50 AM 28.4 °F 17.5 °F 26.6 °F 93% 29.82 in 5.0 mi NE 13.8 mph - N/A Snow Light Snow
4:39 AM 26.6 °F 15.7 °F 24.8 °F 93% 29.83 in 9.0 mi NE 12.7 mph - N/A Snow Light Snow
5:00 AM 26.6 °F 16.2 °F 26.6 °F 100% 29.85 in 9.0 mi NE 11.5 mph - N/A Snow Light Snow
5:20 AM 26.6 °F 15.7 °F 24.8 °F 93% 29.84 in 9.0 mi NE 12.7 mph - N/A   Overcast
5:38 AM 26.6 °F 17.5 °F 26.6 °F 100% 29.85 in 6.0 mi NE 9.2 mph - N/A   Overcast
5:39 AM 28.4 °F 19.1 °F 26.6 °F 93% 29.85 in 5.0 mi NE 10.4 mph - N/A   Overcast
5:43 AM 26.6 °F 16.2 °F 26.6 °F 100% 29.85 in 3.5 mi NE 11.5 mph - N/A Snow Light Snow
5:48 AM 26.6 °F 16.2 °F 26.6 °F 100% 29.85 in 3.0 mi NNE 11.5 mph - N/A Snow Light Snow
6:00 AM 27 °F - 26 °F 92% 29.87 in 6 mi NE 11.5 mph - - Snow Light Snow
6:00 AM 26.6 °F 16.2 °F 24.8 °F 93% 29.87 in 6.0 mi NE 11.5 mph - N/A Snow Light Snow
6:13 AM 26.6 °F 16.2 °F 26.6 °F 100% 29.86 in 8.0 mi NE 11.5 mph - N/A Snow Light Snow
6:25 AM 26.6 °F 16.2 °F 26.6 °F 100% 29.86 in 2.5 mi NE 11.5 mph - N/A Snow Light Snow
6:44 AM 26.6 °F 15.7 °F 26.6 °F 100% 29.86 in 1.4 mi NE 12.7 mph - N/A Snow Light Snow
6:53 AM 26.6 °F 16.2 °F 26.6 °F 100% 29.86 in 1.0 mi NE 11.5 mph - N/A Snow Light Snow
6:59 AM 26.6 °F 18.2 °F 26.6 °F 100% 29.86 in 1.0 mi NNE 8.1 mph - N/A Snow Light Snow
7:00 AM 26.6 °F 17.5 °F 26.6 °F 100% 29.87 in 1.0 mi NNE 9.2 mph - N/A Snow Light Snow
7:09 AM 26.6 °F 17.5 °F 26.6 °F 100% 29.86 in 1.2 mi NNE 9.2 mph - N/A Snow Light Snow
7:10 AM 26.6 °F 17.5 °F 26.6 °F 100% 29.86 in 1.2 mi North 9.2 mph - N/A Snow Light Snow
7:14 AM 26.6 °F 17.5 °F 26.6 °F 100% 29.86 in 1.0 mi North 9.2 mph - N/A Snow Light Snow
7:17 AM 26.6 °F 17.5 °F 26.6 °F 100% 29.86 in 1.0 mi North 9.2 mph - N/A Snow Light Snow
7:27 AM 26.6 °F 17.5 °F 26.6 °F 100% 29.86 in 1.5 mi North 9.2 mph - N/A Snow Light Snow
7:37 AM 26.6 °F 17.5 °F 24.8 °F 93% 29.87 in 2.5 mi NNE 9.2 mph - N/A   Unknown
7:41 AM 26.6 °F 16.8 °F 24.8 °F 93% 29.87 in 9.0 mi NNE 10.4 mph - N/A   Unknown
7:48 AM 24.8 °F 15.3 °F 24.8 °F 100% 29.87 in 9.0 mi NNE 9.2 mph - N/A   Overcast
8:00 AM 24.8 °F 15.3 °F 23.0 °F 93% 29.88 in 9.0 mi North 9.2 mph - N/A   Overcast
8:09 AM 24.8 °F 15.3 °F 23.0 °F 93% 29.87 in 9.0 mi North 9.2 mph - N/A   Overcast
8:18 AM 26.6 °F 17.5 °F 24.8 °F 93% 29.87 in 5.0 mi North 9.2 mph - N/A   Overcast
8:31 AM 24.8 °F 15.3 °F 24.8 °F 100% 29.87 in 9.0 mi North 9.2 mph - N/A   Overcast
8:42 AM 24.8 °F 16.1 °F 24.8 °F 100% 29.87 in 9.0 mi North 8.1 mph - N/A   Overcast
8:57 AM 24.8 °F - 24.8 °F 100% 29.88 in 9.0 mi North 2.3 mph - N/A   Overcast
9:00 AM 25 °F - 24 °F 92% 29.89 in 9 mi North 2.3 mph - -   Overcast
9:00 AM 24.8 °F 20.5 °F 23.0 °F 93% 29.89 in 9.0 mi North 3.5 mph - N/A   Overcast
9:34 AM 23.0 °F 17.0 °F 23.0 °F 100% 29.88 in 9.0 mi WNW 4.6 mph - N/A   Overcast
9:42 AM 23.0 °F 18.4 °F 23.0 °F 100% 29.88 in 9.0 mi WNW 3.5 mph - N/A   Overcast
9:53 AM 24.8 °F - 23.0 °F 93% 29.88 in 9.0 mi SW 2.3 mph - N/A   Overcast
10:00 AM 24.8 °F - 23.0 °F 93% 29.89 in 9.0 mi SW 2.3 mph - N/A   Overcast
11:00 AM 24.8 °F 15.3 °F 23.0 °F 93% 29.88 in 10.0 mi West 9.2 mph - N/A Snow Light Snow
12:00 PM 24 °F - 22 °F 89% 29.87 in 9 mi WNW 8.1 mph - -   Overcast
12:00 PM 24.8 °F 15.3 °F 21.2 °F 86% 29.87 in 25.0 mi WNW 9.2 mph - N/A Snow Light Snow
1:00 PM 24.8 °F 14.6 °F 24.8 °F 100% 29.87 in 5.0 mi WNW 10.4 mph - N/A Snow Light Snow
1:11 PM - - - N/A% - 2.0 mi WNW 8.1 mph - N/A   Unknown
2:00 PM 26.6 °F 14.3 °F 26.6 °F 100% 29.87 in 2.0 mi North 16.1 mph - N/A Snow Light Snow
3:00 PM 26 °F - 25 °F 95% 29.88 in 2 mi North 16.1 mph - -  
3:00 PM 26.6 °F 14.3 °F 24.8 °F 93% 29.88 in 2.5 mi North 16.1 mph - N/A Snow Light Snow
4:00 PM 26.6 °F 15.2 °F 24.8 °F 93% 29.88 in 3.0 mi North 13.8 mph - N/A Snow Light Snow
5:00 PM 24.8 °F 14.0 °F 23.0 °F 93% 29.88 in 4.0 mi North 11.5 mph - N/A Snow Light Snow
6:00 PM 24.8 °F 12.4 °F 21.2 °F 86% 29.87 in 4.0 mi NNW 15.0 mph - N/A Snow Light Snow
7:00 PM 23.0 °F 13.1 °F 21.2 °F 93% 29.86 in 15.0 mi NNW 9.2 mph - N/A Snow Light Snow
8:00 PM 24.8 °F 16.1 °F 21.2 °F 86% 29.85 in 15.0 mi NNW 8.1 mph - N/A Snow Light Snow
8:15 PM 23.0 °F 13.1 °F 21.2 °F 93% 29.83 in 9.0 mi NNW 9.2 mph - N/A   Overcast
8:37 PM 23.0 °F 12.4 °F 19.4 °F 86% 29.83 in 9.0 mi NNW 10.4 mph - N/A   Overcast
9:00 PM 23 °F - 20 °F 83% 29.83 in 9 mi NNW 9.2 mph - -   Overcast
10:00 PM 23.0 °F 14.7 °F 19.4 °F 86% 29.82 in 9.0 mi NNW 6.9 mph - N/A   Overcast
11:00 PM 23.0 °F 18.4 °F 19.4 °F 86% 29.81 in 9.0 mi NNW 3.5 mph - N/A   Overcast